Location: Mentone
(34.5413°N, 85.5351°W)
Time: 19:24:42
(UTC-06:00)

Transit 2A Rocket - Visible Passes

Search period start: 08 February 2016 00:00
Search period end: 18 February 2016 00:00
Orbit: 592 x 913 km, 66.7° (Epoch: 07 February)

Date Brightness Start Highest point End Pass type
(mag) Time Alt. Az. Time Alt. Az. Time Alt. Az.
08 Feb 7.7 05:24:13 10° NNE 05:26:04 12° NE 05:27:58 10° ENE visible
10 Feb 7.0 05:40:04 10° N 05:44:38 28° ENE 05:49:31 10° ESE visible
11 Feb 7.6 04:58:42 10° NNE 05:02:09 17° NE 05:05:45 10° E visible
12 Feb 5.5 05:57:30 10° NNW 06:02:53 71° ENE 06:08:42 10° SSE visible
13 Feb 6.4 05:15:31 10° N 05:20:34 41° ENE 05:26:00 10° SE visible
14 Feb 7.2 04:33:49 10° N 04:38:10 24° NE 04:42:46 10° ESE visible
15 Feb 7.7 03:52:38 10° NNE 03:55:38 15° NE 03:58:43 10° E visible
15 Feb 5.1 05:33:15 10° NNW 05:38:42 79° WSW 05:44:35 10° SSE visible
15 Feb 6.5 18:25:47 10° SE 18:26:21 11° SE 18:26:21 11° SE visible
15 Feb 7.2 20:05:49 10° SW 20:06:22 13° SW 20:06:22 13° SW visible
16 Feb 5.7 04:51:05 10° NNW 04:56:27 60° ENE 05:02:13 10° SE visible
16 Feb 4.9 19:23:20 10° SSW 19:26:41 55° SSW 19:26:41 55° SSW visible
17 Feb 6.6 04:09:53 13° N 04:14:07 35° ENE 04:19:22 10° ESE visible
17 Feb 6.0 05:51:51 10° NW 05:56:37 30° WSW 06:01:40 10° SSW visible
17 Feb 4.8 18:41:23 10° S 18:45:27 44° ESE 18:47:01 31° ENE visible
17 Feb 7.5 20:25:41 10° W 20:27:02 14° WNW 20:27:02 14° WNW visible
